GFSMA_500_rhum_033.txt.gz
RH
96 96 98 77 63 50 44 38 35 34 36 41 46 48 55 61 62 62 50 38 27 21 18 18 17 17 17 17 24 31 32 29 24 24 26 20 18 22 28 27 27 29 56
98 96 95 87 77 66 61 44 39 41 48 49 58 64 62 50 40 37 26 21 19 19 20 20 19 18 16 14 13 12 13 18 26 30 29 28 24 21 20 23 28 28 29
94 92 73 64 88 54 55 63 60 57 58 59 54 33 29 26 25 23 23 24 23 22 22 20 19 18 16 16 16 16 15 13 12 11 18 25 29 29 24 20 20 25 30
87 71 61 59 56 67 68 66 58 60 54 41 31 30 29 28 30 29 27 24 23 21 20 20 18 14 15 14 14 14 13 14 14 14 12 10 14 15 27 29 23 20 21
79 57 58 66 68 62 50 44 41 38 35 34 32 35 37 36 36 33 30 28 25 22 18 13 15 13 14 14 12 11 12 13 12 12 12 12 11 10 10 16 29 26 21
58 44 39 39 41 38 42 45 50 54 54 52 50 49 46 41 37 35 33 29 22 16 12 10 9 8 8 8 9 8 10 9 11 12 12 11 11 11 10 9 10 24 28
30 32 38 46 64 66 70 69 64 61 61 56 51 47 46 42 33 26 22 20 18 16 13 12 12 12 10 8 8 7 8 8 9 9 11 12 11 10 10 10 9 9 15
35 46 61 66 71 73 66 65 70 67 61 56 51 42 30 25 28 31 25 21 17 16 16 15 14 14 13 12 12 9 6 8 8 7 7 8 10 10 10 8 9 9 9
33 41 50 57 58 62 66 65 64 62 56 44 35 35 32 29 24 27 26 23 19 16 15 14 13 12 11 9 8 8 9 8 7 6 6 5 6 7 8 9 8 8 9
30 35 35 37 43 53 61 64 66 55 45 43 42 44 44 37 33 28 22 16 14 12 12 10 9 7 5 4 4 3 3 4 5 6 6 6 5 4 6 6 8 7 8
32 33 33 33 43 56 68 67 60 57 52 47 47 47 44 36 25 18 16 14 12 9 5 4 4 4 6 6 6 6 4 3 3 3 3 3 4 4 4 4 5 6 6
32 34 34 40 54 62 64 58 56 56 54 51 45 42 30 19 16 16 12 8 4 6 8 10 14 15 15 15 17 16 14 9 8 7 5 3 3 2 3 3 3 4 5
42 45 45 57 67 66 66 64 60 57 51 47 38 25 17 18 15 8 5 7 9 11 16 25 29 26 22 20 19 19 19 18 16 16 12 7 6 4 3 2 2 4 5
50 50 52 68 69 71 70 65 58 52 44 34 27 21 19 12 6 7 10 14 16 18 26 34 36 32 27 22 18 15 14 14 14 14 16 18 13 8 6 4 3 3 4
51 48 57 74 77 74 70 62 54 52 49 35 22 19 12 7 9 12 15 27 39 25 24 37 33 29 23 20 21 20 19 18 18 17 17 20 19 18 12 8 6 4 3
52 53 82 84 82 79 66 66 68 52 36 24 18 10 8 10 13 19 41 51 52 42 27 35 28 24 23 21 19 20 20 22 18 18 16 17 19 18 18 18 12 7 4
56 85 89 89 84 74 72 75 60 34 24 20 12 9 10 14 22 48 56 54 53 45 39 26 27 25 22 23 30 38 40 42 43 38 35 24 16 17 17 17 17 15 7
88 90 93 82 75 76 81 63 34 26 21 11 9 11 15 23 52 59 62 55 50 50 30 26 27 24 28 40 47 56 66 69 66 68 58 50 35 23 18 18 18 20 14
85 86 85 78 90 85 51 29 24 24 13 10 12 16 21 52 62 66 59 56 54 34 31 27 26 29 41 50 58 73 80 80 80 80 80 70 60 45 25 16 18 24 27
87 90 86 98 86 47 31 26 22 15 10 12 16 20 41 64 71 57 54 55 35 29 28 28 30 39 48 56 78 80 66 33 21 37 62 84 76 64 49 32 20 31 45
97 88 98 97 76 57 31 22 13 11 12 15 23 34 55 59 46 56 58 39 30 26 29 27 42 48 56 80 81 65 16 17 22 28 54 83 91 85 68 54 26 28 48
89 94 100 97 74 36 22 14 12 13 15 21 33 42 46 39 55 54 37 32 26 26 28 34 53 65 79 81 77 20 17 30 36 64 76 88 100 100 92 71 42 25 53
100 100 100 90 63 33 16 12 12 15 23 30 41 43 52 67 57 41 33 28 26 30 29 46 68 82 78 80 56 18 25 37 50 69 98 100 100 100 100 91 55 27 50
100 100 91 78 44 24 12 12 14 22 31 36 42 64 72 62 43 36 31 29 31 32 35 62 73 84 78 88 42 19 35 46 53 73 76 79 100 100 100 97 75 44 40
100 96 81 58 30 16 13 15 20 32 38 55 73 70 72 51 37 33 30 30 35 33 41 64 85 89 79 95 45 21 47 70 91 97 99 90 80 72 88 85 78 57 34
98 91 66 36 20 12 14 20 29 38 50 77 75 70 59 43 34 30 28 30 38 34 42 74 91 93 79 99 64 21 50 80 92 100 100 100 100 99 66 50 65 58 34

GFSMA_500_rhum_036.txt.gz
RH
88 87 98 83 77 76 53 56 34 28 37 36 37 42 53 57 59 62 62 51 50 52 35 26 22 19 18 18 17 18 22 25 26 28 29 28 28 26 30 20 23 30 31
89 76 90 83 72 63 29 32 36 34 39 45 49 52 57 57 48 41 32 29 28 28 26 24 24 24 23 21 20 19 18 15 14 14 15 19 24 25 27 29 24 20 27
76 85 70 40 32 29 26 27 31 33 36 36 36 36 35 35 32 29 29 28 26 28 29 28 27 25 23 21 20 19 18 18 17 16 15 13 13 13 14 22 26 28 22
50 35 30 39 28 29 32 37 38 38 39 40 41 40 41 42 41 39 39 39 35 32 32 32 31 29 27 25 22 20 17 17 17 16 16 16 14 13 12 12 12 17 27
17 18 26 27 24 25 28 33 43 46 51 52 51 51 52 53 54 51 47 46 44 41 39 36 32 31 28 25 23 21 18 18 16 16 15 15 14 14 14 13 12 12 12
18 20 22 22 24 25 28 28 34 45 49 46 52 60 65 64 61 56 48 39 33 29 26 23 21 18 18 19 17 16 15 15 16 15 15 15 15 14 14 12 12 12 12
21 21 21 23 31 34 30 32 33 36 45 51 55 62 64 59 51 46 41 34 31 27 25 24 23 20 17 16 14 12 11 9 9 8 10 11 12 13 12 14 12 12 11
21 22 25 25 28 34 35 32 30 38 48 53 53 51 45 46 46 44 40 38 36 33 28 25 22 19 18 17 18 18 14 12 11 10 9 9 8 7 8 9 12 12 12
27 28 30 35 36 34 36 36 33 44 49 50 52 51 48 46 40 39 37 35 30 23 20 17 14 12 10 10 11 12 12 11 10 10 10 9 9 8 7 6 7 7 9
32 34 34 35 37 39 41 37 38 57 62 61 64 62 52 43 33 28 26 23 20 18 16 12 9 8 7 6 4 4 4 4 4 4 4 5 5 6 6 6 6 6 6
37 38 38 41 40 38 38 37 53 67 72 70 60 50 42 35 39 39 33 28 22 15 10 6 4 5 6 6 7 7 6 5 4 4 4 3 3 3 4 4 5 6 6
50 56 51 45 42 39 39 55 73 78 76 66 50 43 38 43 43 29 18 12 8 7 6 7 8 12 15 16 15 14 14 15 13 12 10 9 7 5 3 3 3 4 4
57 59 54 49 45 44 54 80 87 78 65 55 49 54 55 29 21 18 11 6 6 6 8 11 26 35 34 32 28 26 25 24 20 18 16 14 14 12 8 4 3 2 3
55 56 56 52 51 55 78 81 80 76 63 61 65 58 39 27 18 10 6 8 9 9 11 21 43 39 35 32 26 27 24 22 19 16 15 13 12 12 13 12 7 5 3
64 59 57 54 58 84 81 79 86 75 75 80 64 38 21 18 10 8 10 12 14 12 13 27 31 40 36 34 30 23 21 21 20 19 18 16 15 14 12 11 13 10 6
59 62 60 65 84 79 78 85 83 77 84 81 51 28 22 14 8 10 12 17 26 41 21 36 32 37 39 28 24 24 23 21 19 18 19 18 16 14 14 14 13 13 12
74 65 71 84 76 82 83 86 82 85 95 79 36 24 19 10 10 14 19 37 51 54 39 28 43 43 28 26 25 25 22 21 28 33 38 40 36 29 22 14 14 16 15
70 81 86 80 80 92 95 100 100 100 86 47 24 23 12 10 13 20 30 54 67 68 39 40 39 30 24 25 25 23 28 37 45 57 59 60 57 51 49 39 21 15 16
90 89 83 81 86 98 100 100 93 87 63 27 22 16 10 12 21 28 46 59 48 40 54 36 28 24 23 25 25 33 39 53 65 67 58 32 19 23 40 51 40 26 18
92 92 83 87 100 100 100 100 99 96 44 23 16 11 11 15 28 37 45 42 56 47 34 30 25 23 26 27 37 45 56 73 68 53 16 14 14 14 15 35 60 55 33
85 84 100 100 100 99 100 100 93 62 33 18 12 13 18 22 28 40 54 63 53 35 31 27 25 26 28 38 51 65 69 67 51 15 15 20 22 21 20 32 64 61 48
92 100 100 96 98 100 100 94 56 31 16 11 13 17 24 28 37 55 51 48 37 33 29 27 27 27 36 52 75 79 63 66 17 20 22 31 29 34 53 70 84 83 65
100 100 100 100 100 100 99 62 30 16 13 14 16 24 29 44 51 58 52 38 31 28 27 27 30 31 55 80 76 68 76 40 18 33 35 37 49 58 87 100 100 73 68
100 100 100 100 100 95 88 44 18 14 14 17 22 30 35 46 53 58 44 33 30 26 27 30 32 37 70 86 83 66 79 22 29 51 53 68 63 66 92 99 100 93 88
100 100 100 100 97 91 64 22 13 13 19 20 30 35 39 53 64 54 38 32 29 25 27 37 34 47 87 89 79 71 85 22 43 71 76 83 88 91 64 92 98 90 96
100 100 100 99 92 74 20 13 15 16 20 28 35 40 45 69 72 51 39 35 29 25 27 41 33 60 95 95 84 70 96 35 33 83 88 98 98 94 100 88 74 94 98

GFSMA_500_rhum_039.txt.gz
RH
61 66 55 36 26 37 48 17 25 15 15 22 23 24 26 33 32 35 34 37 45 42 40 37 31 29 29 28 24 20 20 19 18 19 18 20 19 20 24 27 27 23 23
74 77 51 31 20 18 17 18 20 20 22 25 24 24 25 29 30 32 34 33 34 34 30 29 31 35 32 30 28 26 25 24 22 21 18 17 17 16 15 17 22 25 26
64 52 27 19 18 20 21 22 22 24 24 25 28 30 31 35 43 44 43 43 40 38 35 31 32 34 38 38 36 33 28 25 23 21 20 20 18 18 16 15 15 16 19
30 21 19 19 19 21 22 22 23 24 23 23 24 28 30 34 44 44 49 50 46 47 44 39 38 39 39 38 38 36 34 32 30 28 25 21 20 18 18 17 16 15 14
19 19 20 21 23 24 25 27 29 29 28 28 29 27 37 41 46 45 56 57 57 54 49 45 42 39 36 32 32 35 33 30 28 27 26 25 22 18 18 17 16 16 15
21 23 26 28 29 31 32 34 35 36 35 33 32 31 46 51 55 49 52 48 45 43 41 37 35 32 29 27 26 24 22 22 22 20 20 21 22 21 17 15 17 15 15
25 27 28 31 33 35 38 41 41 38 36 33 29 33 49 54 54 55 53 53 46 38 34 30 27 25 23 21 21 20 18 17 17 16 17 16 16 16 17 17 15 15 13
27 27 29 32 38 43 48 49 43 41 36 33 34 44 44 51 54 55 48 41 36 30 26 24 23 21 18 15 14 13 11 17 16 14 13 13 13 14 13 12 12 12 12
28 30 33 37 44 51 57 52 50 41 35 37 49 45 37 35 32 40 39 31 33 29 36 36 28 22 26 27 18 14 7 3 7 14 14 11 10 10 11 12 11 10 10
24 27 34 41 47 53 55 55 52 44 42 54 53 49 52 50 45 38 34 31 30 35 39 42 44 38 21 6 5 5 4 4 4 3 3 2 3 3 5 8 11 11 10
24 25 26 26 31 50 51 53 52 48 58 54 52 53 54 58 56 41 29 24 36 55 48 12 10 8 6 6 7 7 6 6 5 6 5 4 4 3 3 3 5 10 10
22 24 26 27 28 34 46 49 51 61 63 56 61 62 60 56 56 47 38 42 56 48 22 7 6 8 9 10 11 11 11 12 10 9 8 9 8 7 6 4 3 3 6
26 27 30 33 78 74 63 60 62 77 73 67 57 66 77 75 68 70 70 62 38 24 14 6 10 13 14 20 24 30 32 22 18 16 15 14 14 14 13 9 6 4 3
31 33 40 46 79 100 97 70 79 82 74 72 78 93 87 86 88 84 46 34 21 10 6 10 15 24 38 42 47 41 32 24 24 25 22 18 16 16 15 15 13 10 7
48 58 49 54 99 82 70 84 87 82 78 88 98 98 90 90 82 42 29 17 8 8 8 13 22 40 45 41 33 32 33 30 22 19 20 19 18 17 14 13 12 12 12
98 100 67 92 100 89 91 88 82 73 76 90 98 90 87 83 61 25 15 7 10 13 15 23 32 36 32 31 42 35 25 22 21 20 20 21 19 18 16 15 14 14 13
98 100 65 76 86 87 92 78 74 78 91 97 99 100 100 89 54 15 9 10 14 22 22 22 28 32 41 40 30 27 21 18 19 21 20 20 21 22 23 24 19 14 13
100 96 71 72 99 98 100 90 97 100 100 100 100 99 76 34 13 9 10 17 20 28 28 23 41 47 35 30 26 22 21 22 21 23 27 34 40 48 46 44 39 30 21
60 68 84 100 94 88 95 97 99 100 100 100 99 95 87 27 9 11 16 22 24 32 41 40 35 33 30 27 24 23 22 24 29 38 42 49 52 51 46 31 25 24 26
72 84 92 99 95 87 99 100 100 100 98 98 95 65 28 10 10 14 19 24 38 36 39 32 31 29 27 26 24 23 25 36 47 60 55 52 56 24 15 14 14 15 14
88 98 100 93 85 99 100 100 100 100 100 91 80 45 13 11 16 22 24 31 33 39 35 30 28 25 27 29 26 28 35 48 81 61 50 60 24 17 16 16 16 15 15
100 100 100 100 100 100 100 100 100 99 93 69 23 12 11 16 24 26 30 31 38 34 32 29 27 23 26 29 27 41 54 74 64 58 57 19 16 18 20 18 22 25 24
96 88 100 100 100 100 100 100 100 98 88 25 10 12 16 23 29 30 32 41 43 34 30 26 25 22 26 28 35 68 75 69 54 70 30 28 26 36 32 31 45 51 60
100 100 100 100 100 100 100 100 100 89 40 12 14 18 24 31 37 37 45 62 48 38 35 29 24 21 29 30 45 79 78 61 68 67 22 51 50 60 57 51 68 88 100
100 100 100 100 100 100 100 96 78 30 12 14 22 25 31 40 42 42 66 68 52 44 38 29 23 22 30 32 64 86 83 57 80 66 20 58 68 74 78 80 68 93 95
100 100 100 100 100 95 86 56 23 13 14 20 26 30 38 49 48 52 76 72 55 50 41 30 23 23 31 35 76 89 89 61 69 85 29 46 76 78 96 97 96 75 85

GFSMA_500_rhum_045.txt.gz
RH
65 67 66 51 60 72 50 15 15 15 17 19 19 20 21 22 19 20 24 26 27 27 25 23 23 23 27 33 40 38 32 33 31 32 32 32 30 27 24 22 22 20 18
38 40 37 25 18 17 17 16 18 18 19 22 23 22 20 20 19 22 29 32 31 29 27 27 28 30 29 29 34 40 41 43 43 40 37 42 44 42 35 30 28 25 23
33 34 16 15 15 15 16 20 22 23 23 25 25 24 22 21 24 31 35 36 35 33 32 33 32 31 31 31 31 31 32 33 35 36 41 43 42 42 45 44 38 34 30
25 14 17 17 18 21 22 23 24 24 27 30 34 33 30 32 36 38 36 37 39 38 39 36 33 30 28 26 24 23 22 25 29 32 31 27 30 35 38 39 39 39 37
17 18 20 22 21 20 22 23 24 25 27 29 32 37 43 46 45 44 42 42 46 48 45 40 38 32 26 22 20 19 17 16 14 12 11 11 16 19 26 32 33 33 34
21 21 21 20 19 19 21 22 24 24 24 26 27 34 40 43 48 49 48 50 56 53 46 38 29 25 25 25 24 22 19 18 17 16 15 14 12 10 10 16 26 28 28
21 18 19 20 21 22 22 22 24 26 26 28 31 41 53 69 70 71 63 64 68 58 48 41 38 38 38 36 30 27 28 22 18 18 18 17 16 14 11 10 10 13 24
18 19 21 22 22 22 23 26 28 30 31 34 39 43 52 90 100 100 86 73 77 74 69 59 56 52 46 45 49 40 42 34 33 46 40 34 27 22 13 10 10 9 9
20 22 21 22 24 25 26 28 31 35 40 59 64 53 45 49 68 89 75 71 73 71 66 65 64 60 58 58 67 67 55 42 40 34 28 32 37 29 21 13 8 8 8
22 22 23 27 26 28 49 63 71 67 53 78 100 100 92 69 77 82 90 69 70 74 71 68 65 58 64 78 77 59 63 35 25 20 17 12 10 9 6 5 5 5 4
22 22 25 28 41 58 72 74 100 92 57 84 94 100 100 76 67 72 64 70 76 79 78 68 56 40 46 57 71 70 38 24 20 14 10 10 7 6 6 6 6 5 4
26 27 39 57 65 77 96 100 72 59 60 82 77 91 100 99 66 64 70 77 77 84 80 76 59 56 81 88 65 39 23 16 13 11 10 9 9 10 11 11 10 8 6
44 56 73 89 78 76 85 89 66 63 72 72 66 87 93 74 72 78 80 85 83 86 85 78 77 81 89 68 35 17 14 12 11 11 12 13 15 14 14 15 14 12 9
78 77 85 84 100 68 88 68 58 61 96 82 82 74 81 90 86 93 96 95 95 84 84 75 83 99 72 32 16 13 11 11 11 14 17 17 16 15 15 16 16 14 12
84 98 84 92 77 79 96 57 71 76 72 64 64 75 99 100 100 100 100 99 97 83 78 96 95 69 38 18 12 12 13 13 14 19 22 24 24 22 22 24 23 22 19
99 74 57 75 97 82 59 67 68 71 75 84 94 100 100 100 100 100 98 98 98 98 99 89 72 42 20 12 12 14 16 19 21 22 23 21 22 21 20 19 18 18 17
95 91 92 58 58 58 71 81 90 96 100 100 100 100 100 100 99 92 93 100 100 98 87 69 42 18 12 15 16 16 19 20 22 23 21 20 20 21 20 20 17 15 14
100 81 65 70 70 92 100 100 98 100 100 97 98 100 100 96 86 99 100 100 97 87 59 25 14 15 21 21 19 20 27 26 24 23 21 19 20 23 22 21 20 19 17
98 98 79 86 100 100 92 86 85 85 86 88 98 97 96 99 100 100 99 88 63 34 20 17 22 26 26 24 24 29 28 26 24 20 18 19 22 24 24 23 22 20 19
92 80 94 96 93 87 98 99 100 100 100 100 92 93 100 100 100 75 48 30 22 20 23 25 32 33 32 33 35 30 30 25 22 18 20 23 23 28 42 47 51 47 36
91 93 92 84 90 93 99 95 86 84 89 56 77 100 85 44 17 16 19 21 22 24 29 34 41 39 44 50 40 35 28 23 20 17 25 38 48 57 54 48 43 44 44
90 89 78 98 100 100 100 96 45 59 18 58 56 19 18 14 13 16 24 27 28 30 34 43 50 46 64 48 43 33 26 21 21 18 28 77 48 58 45 53 61 54 43
92 97 96 88 11 10 11 20 15 13 22 21 18 19 22 16 18 26 30 30 34 37 43 50 54 63 64 55 46 33 25 20 20 23 41 79 62 53 48 58 36 21 21
98 100 100 14 4 8 7 9 16 19 18 20 25 26 20 19 26 37 38 37 43 50 54 56 64 77 70 64 51 35 24 21 23 25 40 76 65 55 66 52 24 20 23
100 35 5 5 6 6 10 14 20 20 28 29 27 23 18 24 37 42 41 44 54 60 60 64 82 88 82 74 54 37 24 22 27 29 43 72 64 62 71 44 24 21 36
5 5 6 6 7 9 16 25 26 26 33 32 23 20 22 29 40 46 46 50 68 69 68 89 91 92 91 79 59 42 27 22 27 41 46 74 65 60 82 69 41 22 36

GFSMA_500_rhum_048.txt.gz
RH
94 85 81 63 59 32 21 18 15 14 15 17 19 21 20 19 17 17 16 14 14 14 16 23 25 28 25 24 24 25 26 25 27 30 32 34 39 42 40 35 31 29 25
77 59 39 36 23 14 14 14 13 16 19 21 21 20 19 18 16 19 18 16 18 17 18 20 21 25 28 28 30 30 30 31 30 28 26 25 28 31 37 43 43 39 31
40 32 29 19 15 15 16 16 19 20 18 18 18 18 18 17 17 20 20 21 22 22 24 25 26 30 34 33 31 32 31 30 29 28 23 24 27 27 23 21 25 29 35
58 25 16 16 16 18 19 19 18 18 17 18 18 18 18 18 19 21 24 27 30 30 28 29 32 41 43 40 36 32 29 25 22 20 19 19 18 17 20 24 21 15 16
19 18 18 20 20 18 15 17 18 17 18 18 19 21 23 26 27 28 29 29 31 37 38 41 47 52 50 44 34 28 26 25 22 20 18 17 16 17 17 16 20 25 26
19 19 19 17 17 17 17 16 15 16 17 20 23 26 29 31 33 39 40 39 42 46 53 57 61 55 46 34 30 27 25 23 22 20 18 18 16 15 13 13 14 14 16
20 16 16 17 18 16 13 12 16 21 25 29 39 38 43 45 50 58 75 84 74 63 72 70 63 55 47 44 40 37 35 35 33 30 27 23 20 17 16 15 13 12 12
16 16 18 17 13 13 15 22 27 30 40 50 51 71 74 58 50 61 96 100 100 87 70 70 82 78 57 50 48 46 45 43 44 39 40 40 35 27 26 24 21 17 13
16 17 16 16 25 20 22 28 37 46 57 68 79 89 68 54 57 74 70 85 92 100 95 72 69 71 70 73 79 79 73 72 67 59 49 37 33 35 39 43 36 29 27
25 16 19 34 34 32 43 47 62 72 51 60 98 95 58 53 66 58 67 70 73 75 75 77 79 81 82 96 98 93 82 81 68 59 57 54 50 54 51 42 32 24 22
45 27 30 50 59 63 66 74 78 99 100 90 84 81 64 65 76 77 63 62 64 72 87 95 100 96 96 89 87 88 82 63 51 49 54 60 66 52 42 30 20 13 9
54 35 62 87 93 70 96 90 76 100 100 65 90 99 70 67 64 67 70 79 76 79 95 100 100 99 97 91 86 84 69 62 69 77 68 43 30 23 17 11 8 7 6
56 74 96 96 95 99 100 100 57 60 52 93 77 64 65 74 83 90 92 89 84 87 88 95 89 83 73 62 64 89 96 92 89 66 34 23 16 12 10 8 7 7 9
94 100 94 100 92 100 94 73 78 75 73 68 72 81 92 94 92 93 97 98 88 71 51 52 68 56 67 97 100 100 100 92 60 36 21 13 12 11 9 11 12 12 12
100 100 91 79 79 86 78 99 90 66 77 81 78 84 87 93 100 99 98 93 89 37 14 42 78 98 100 100 100 99 83 48 21 15 15 14 13 13 14 13 13 14 15
97 92 71 78 94 100 100 88 84 82 78 77 84 87 82 77 73 71 53 27 12 40 80 100 100 98 95 100 84 50 23 16 19 19 18 15 16 17 20 19 18 18 18
95 100 98 99 100 100 98 93 83 86 93 94 91 88 98 100 85 10 17 10 23 36 32 25 48 76 56 28 20 17 20 24 23 21 18 19 22 23 22 21 19 17 17
100 100 100 100 100 100 82 92 90 84 73 81 87 91 80 41 8 8 8 13 15 16 14 13 17 22 25 24 23 26 32 30 26 27 26 26 25 23 20 17 16 16 17
100 98 71 99 86 92 95 100 94 100 98 100 13 6 6 6 7 10 13 16 17 16 14 16 20 25 26 30 34 38 38 37 36 30 27 26 24 19 17 17 19 20 20
84 72 95 85 94 99 85 91 98 100 99 78 5 6 6 8 10 17 23 23 18 15 18 26 30 31 33 39 42 40 50 46 41 34 28 25 21 18 20 24 36 46 50
75 76 86 100 96 100 100 100 100 100 84 5 6 7 9 13 18 27 27 20 16 19 26 31 32 35 44 49 51 59 52 49 45 34 27 22 18 20 22 40 48 51 46
67 88 96 91 89 100 100 100 100 84 5 7 8 10 14 22 31 36 27 19 19 25 34 38 41 44 56 56 73 73 57 52 43 32 24 22 18 26 40 50 53 44 44
86 98 98 90 78 61 13 8 6 6 8 9 12 20 26 31 43 38 24 18 24 34 44 43 46 58 62 70 85 76 65 58 44 32 24 26 22 40 57 54 49 49 57
100 100 100 94 15 5 5 6 8 9 10 14 28 37 38 47 46 32 20 19 31 46 46 46 54 66 67 86 86 80 77 65 45 32 24 26 27 66 67 57 50 58 51
100 79 48 10 5 6 8 8 10 12 19 29 49 56 58 55 41 27 18 24 37 51 48 50 62 71 75 91 89 85 82 68 47 29 24 22 32 69 77 59 58 53 39
63 25 7 6 6 7 9 11 15 21 28 42 69 73 66 46 30 20 19 33 46 53 54 55 72 73 87 95 89 87 79 71 53 33 22 23 28 45 83 70 75 59 43

GFSMA_500_rhum_051.txt.gz
RH
82 89 93 90 74 46 42 18 15 13 12 12 12 14 16 17 17 16 15 15 13 11 12 13 16 17 17 19 20 21 24 23 23 24 28 29 30 31 33 36 37 35 31
92 78 85 62 38 25 14 12 12 13 15 14 15 16 18 17 15 14 14 16 15 15 15 17 19 18 19 20 22 24 27 31 30 29 29 28 26 27 28 29 30 28 29
34 38 46 27 16 14 14 13 14 15 14 15 17 17 16 14 14 15 17 19 19 20 20 22 22 22 24 24 24 27 36 39 37 33 32 33 33 28 24 20 18 17 20
82 61 33 14 15 16 15 14 14 15 17 16 13 14 14 16 18 20 23 25 27 28 26 24 26 29 30 34 35 38 43 44 41 38 35 31 27 26 24 23 24 21 17
51 18 15 17 18 16 14 15 17 17 13 13 14 13 16 20 24 28 31 35 38 31 34 48 50 52 52 49 49 52 48 44 34 27 25 22 21 21 22 24 25 24 24
18 18 20 20 17 15 16 17 14 15 14 14 14 16 22 29 31 31 42 46 39 35 33 34 36 42 50 48 51 52 55 46 35 31 29 28 25 22 19 18 19 20 19
23 22 20 16 16 17 15 16 24 19 15 14 19 30 34 34 38 46 50 38 37 37 41 42 45 45 45 51 52 52 51 55 55 47 37 35 36 34 33 27 25 20 15
26 31 20 17 17 16 21 30 34 24 17 22 35 38 48 62 67 59 47 48 44 48 50 56 54 52 53 53 54 56 56 54 53 53 51 50 49 48 49 51 50 45 37
60 45 31 36 34 35 29 41 49 31 34 42 61 63 54 71 92 75 70 70 62 66 66 70 74 73 75 78 79 78 82 83 81 78 74 70 68 62 57 55 56 53 47
61 50 46 51 56 48 41 53 53 56 67 65 67 89 78 80 55 44 57 70 74 75 73 77 84 85 86 83 78 68 61 59 75 81 80 82 76 68 60 61 60 50 44
83 78 61 65 71 53 39 88 94 68 84 95 100 79 65 52 57 69 75 72 71 77 79 77 70 57 35 16 10 7 7 4 5 5 7 12 22 43 54 59 60 51 45
83 76 82 84 81 69 60 83 99 100 100 100 98 95 71 76 80 82 73 81 78 76 66 59 38 13 4 4 4 4 4 10 25 42 42 47 62 70 82 84 87 81 72
97 97 98 93 86 92 93 85 100 86 89 96 96 90 88 82 84 83 73 58 32 27 16 15 6 4 4 4 5 6 16 86 100 100 100 100 100 100 96 82 66 52 41
100 100 100 94 100 98 98 98 96 95 91 99 88 85 84 86 87 76 83 73 12 4 4 4 5 5 6 6 8 10 19 68 86 96 91 92 93 85 67 51 32 18 12
100 100 98 100 100 97 91 88 98 100 98 87 85 78 78 80 86 86 72 33 4 4 5 6 6 8 10 13 14 14 15 16 18 18 18 16 15 14 14 15 15 13 12
96 92 100 100 100 94 100 90 100 86 99 92 76 80 75 81 95 99 89 17 6 6 7 9 13 17 17 14 14 16 21 21 21 23 24 24 24 22 21 18 16 15 16
94 81 90 100 100 100 100 100 100 86 88 86 91 97 99 100 100 91 40 6 7 8 10 16 24 23 17 16 20 24 26 27 28 30 30 27 24 27 28 25 23 23 22
91 100 96 96 100 100 99 95 100 84 88 95 90 100 97 73 94 16 6 8 10 13 20 30 32 22 17 22 28 32 32 36 39 37 30 29 38 37 32 28 26 22 20
62 85 96 89 100 100 82 78 87 99 93 84 92 72 30 6 6 8 9 11 14 24 36 41 29 18 20 30 36 37 46 48 52 40 37 43 41 34 30 26 22 19 15
43 60 67 50 66 88 86 92 93 86 90 100 45 6 5 7 8 10 12 16 29 42 51 38 27 17 27 38 41 43 52 64 65 66 55 50 41 32 26 22 19 17 17
37 37 39 47 79 90 91 88 84 99 100 63 7 6 7 9 10 13 20 34 55 60 52 35 21 20 34 44 44 56 57 65 98 76 63 53 39 29 24 20 18 20 25
38 44 60 81 89 87 100 100 100 100 50 8 6 8 9 11 15 23 40 60 73 67 44 29 19 27 41 48 53 64 64 79 94 78 66 54 38 26 22 19 20 21 36
48 56 78 93 100 100 98 98 84 27 10 7 8 9 11 15 26 46 64 79 72 52 33 22 21 38 46 52 66 70 74 92 89 76 66 53 37 24 21 20 22 31 48
54 73 88 93 94 83 54 27 16 10 8 8 10 11 14 24 46 65 75 72 57 39 24 20 31 47 52 57 73 72 86 91 91 81 66 55 38 23 22 22 28 44 50
65 81 90 89 81 52 30 16 10 9 9 10 12 14 24 37 53 60 62 56 44 25 21 23 38 52 54 62 79 76 89 88 87 87 70 58 39 23 24 31 41 53 44
80 80 81 82 69 44 18 10 9 9 10 11 12 19 31 41 48 53 51 45 26 22 22 30 42 57 58 70 86 83 93 90 85 83 73 61 40 25 33 47 65 59 52

GFSMA_500_rhum_054.txt.gz
RH
88 85 83 74 72 68 59 32 24 11 13 15 17 15 13 13 12 11 10 9 11 12 13 14 15 16 18 19 19 18 19 21 20 20 20 24 30 32 30 30 30 32 36
90 95 96 87 75 47 25 14 14 14 15 15 14 14 14 12 11 10 11 14 17 18 20 20 19 19 19 20 22 23 24 24 25 26 26 27 29 33 34 33 32 30 30
93 75 50 42 34 20 16 14 14 14 15 16 15 15 12 11 11 12 14 20 22 24 24 26 25 25 23 23 25 27 31 30 31 32 35 36 38 40 37 34 30 28 27
70 56 55 64 20 16 14 14 14 16 16 15 12 11 11 11 13 17 22 26 29 29 31 32 28 27 27 27 27 29 34 45 45 40 40 44 44 42 39 39 38 32 26
84 70 37 20 17 16 14 14 16 17 15 13 13 12 11 12 20 28 34 36 37 42 38 29 30 30 32 35 36 37 36 35 35 39 37 36 38 37 39 38 36 33 30
75 43 20 19 20 15 15 15 16 16 17 18 18 13 14 22 26 38 37 41 50 49 50 40 38 39 42 42 38 40 40 40 39 38 38 36 37 36 27 25 26 29 30
63 23 23 22 21 18 17 19 23 31 21 19 18 16 31 42 51 53 46 36 34 36 37 42 49 51 43 41 48 52 45 42 43 43 42 42 43 43 43 37 29 26 25
92 35 30 40 47 32 37 41 42 32 13 14 19 41 60 50 46 61 66 51 45 49 52 56 61 61 59 59 45 38 35 37 33 34 39 44 48 48 47 48 50 49 44
99 83 58 68 52 57 57 50 46 50 22 17 47 79 79 80 71 65 61 84 61 62 64 67 62 55 52 39 35 26 13 8 8 7 5 4 4 5 10 22 40 58 64
97 98 95 87 78 70 68 56 48 49 41 51 57 68 91 90 76 76 82 60 58 77 74 74 81 68 36 16 9 9 6 6 6 6 6 6 5 5 4 4 4 4 4
95 88 89 78 80 87 80 71 70 57 53 78 83 84 91 85 96 98 64 71 71 58 59 61 51 52 35 18 8 8 8 9 8 6 5 5 5 5 6 7 10 10 8
82 98 95 96 94 90 84 82 72 65 74 96 100 100 100 100 99 70 75 72 73 73 68 79 89 56 23 8 9 9 10 8 5 5 6 8 9 16 90 100 81 65 67
84 95 90 96 90 88 90 76 68 94 100 99 100 83 92 100 79 78 78 76 71 84 92 70 26 13 6 8 8 8 6 7 10 12 12 11 12 13 13 22 47 84 98
75 98 93 96 98 100 100 70 83 100 99 99 94 98 99 80 88 85 87 69 72 83 42 11 6 6 8 8 8 7 12 15 17 13 12 13 15 15 15 14 14 13 18
98 98 98 98 100 99 96 92 100 100 97 100 100 95 80 76 91 94 83 95 79 31 6 6 7 8 9 9 10 18 22 21 14 14 18 20 22 22 23 23 22 19 16
98 99 100 98 99 97 99 96 98 79 95 92 90 73 79 91 98 100 100 100 32 6 7 8 9 10 11 16 26 31 29 17 14 19 25 25 27 30 32 32 28 25 22
99 98 99 100 98 90 67 88 96 99 66 98 100 91 100 100 100 100 100 60 8 7 8 9 11 13 14 32 47 42 26 15 19 27 30 30 33 34 31 29 29 28 26
97 84 81 85 66 81 68 77 68 71 54 94 89 100 100 100 100 100 84 11 8 8 10 10 16 22 34 48 54 37 21 17 27 33 32 35 36 30 35 40 41 36 32
18 43 64 94 41 47 56 44 45 63 100 100 98 82 99 100 100 91 12 9 8 10 11 17 23 33 56 60 44 29 18 25 35 38 41 41 36 38 48 48 39 32 28
16 18 34 36 37 40 40 50 71 100 100 93 97 100 100 96 46 10 9 9 10 12 21 32 35 54 62 50 36 21 21 35 42 47 46 44 47 49 54 44 33 27 24
22 22 30 34 36 46 63 79 85 93 100 100 100 83 47 22 13 9 9 11 13 20 30 37 43 56 53 43 26 20 28 41 49 56 52 66 54 58 51 42 29 24 21
22 28 34 40 47 53 66 83 98 99 95 88 70 44 29 16 10 10 11 13 17 30 34 45 52 54 51 33 21 24 38 48 55 68 64 76 66 65 56 43 30 22 19
29 31 36 41 49 62 80 89 87 84 83 81 63 36 16 12 11 11 13 15 21 28 36 48 54 51 40 24 21 32 48 52 65 68 74 80 73 67 59 45 31 23 20
28 37 43 49 63 76 79 80 82 80 79 70 47 27 14 11 12 14 17 22 24 28 31 34 40 37 26 22 26 40 56 57 78 77 82 79 81 69 60 45 31 22 21
37 46 54 67 72 75 74 74 71 68 64 49 27 15 13 13 14 17 21 22 21 22 25 25 26 25 23 26 38 48 61 65 85 89 91 85 86 72 64 44 28 21 25
50 64 70 72 64 59 61 63 61 54 42 30 23 18 14 13 15 20 16 15 16 20 24 23 26 25 26 34 49 60 64 78 86 96 90 94 94 75 65 40 26 22 37

GFSMA_500_rhum_057.txt.gz
RH
97 95 94 96 71 68 62 67 39 25 18 13 12 12 13 13 11 12 11 10 10 10 12 16 16 18 22 23 24 24 22 22 21 22 21 20 21 22 22 23 25 29 31
96 94 94 80 77 76 74 44 20 14 14 13 13 14 12 11 10 10 10 10 11 11 16 16 22 24 27 31 31 29 28 28 28 29 30 33 35 31 28 28 28 30 33
89 95 96 77 69 80 34 16 16 16 14 13 14 13 11 12 11 10 9 8 12 15 18 23 28 34 33 31 29 29 29 29 30 32 32 35 39 41 38 35 33 33 39
98 91 73 48 37 34 16 17 17 14 14 14 13 11 13 14 14 10 14 19 19 14 22 31 31 34 35 38 30 29 31 33 36 37 38 38 38 37 40 40 38 35 34
100 76 64 63 55 19 19 17 14 14 14 12 14 16 15 13 13 12 23 36 32 36 33 27 29 29 32 33 34 36 35 28 26 24 20 20 24 32 38 38 36 35 37
97 82 67 33 21 22 18 15 15 16 20 29 27 15 12 11 12 22 34 47 41 47 44 44 38 34 36 45 46 39 34 28 27 22 19 18 17 16 16 19 26 34 36
96 70 28 24 21 19 21 36 32 40 40 39 35 27 17 14 25 45 50 52 59 57 50 54 46 42 42 39 37 38 37 40 30 21 18 15 15 15 14 14 12 12 15
95 55 30 36 20 30 43 49 46 56 51 48 28 17 24 25 19 39 76 78 82 83 85 76 56 56 57 59 46 33 26 34 34 25 17 16 16 17 18 16 15 14 13
97 96 94 79 70 61 74 70 74 78 63 59 54 48 53 43 65 69 36 57 86 89 84 64 50 52 56 55 56 52 40 29 21 16 14 16 18 18 16 14 12 10 10
97 98 98 98 98 82 79 81 86 89 78 50 57 48 30 49 76 87 98 83 53 68 73 51 60 68 58 52 50 42 28 22 17 16 18 18 17 13 10 7 6 5 4
83 72 73 92 98 100 97 98 93 92 73 69 58 30 35 84 98 99 85 100 98 69 49 53 63 66 62 64 62 44 26 22 19 18 18 15 11 8 5 4 4 7 9
47 79 82 87 95 99 98 99 93 83 68 77 86 68 85 98 100 57 82 96 75 69 81 81 70 66 76 77 60 42 26 18 17 17 13 9 6 5 6 9 10 10 11
61 63 86 98 100 98 99 99 87 98 100 99 97 100 82 100 74 99 96 83 81 82 86 87 82 78 77 71 54 28 18 13 14 10 8 7 6 9 11 10 12 14 14
58 83 93 92 98 97 95 95 99 98 100 98 100 88 64 64 86 56 70 100 100 82 86 98 100 94 73 53 37 20 13 14 10 10 8 10 15 13 11 14 17 20 19
96 99 98 98 99 90 97 100 99 100 100 99 83 51 56 99 64 55 100 100 96 87 97 100 96 46 36 32 19 12 12 11 13 12 16 20 16 13 17 24 25 24 24
81 94 98 91 92 90 94 93 100 100 100 88 78 67 46 45 54 97 100 100 96 100 99 88 40 21 21 14 10 12 14 15 16 19 22 20 15 18 27 28 30 32 31
71 78 78 76 86 83 69 91 100 77 93 74 37 38 45 66 100 100 99 92 100 100 88 49 32 20 12 11 12 13 17 18 17 23 24 16 16 27 33 34 37 33 30
38 22 37 81 15 21 21 24 30 85 66 34 38 53 73 95 99 100 100 100 95 51 40 38 26 12 11 14 16 18 20 25 28 31 22 17 22 36 36 38 36 40 38
14 8 9 12 11 13 15 20 27 32 36 44 57 69 90 100 100 100 95 77 60 48 33 21 13 12 14 19 22 26 25 27 32 30 19 20 33 42 44 42 47 46 46
9 10 12 14 16 19 24 30 30 36 42 50 65 82 92 90 86 88 79 64 47 28 16 14 14 15 19 22 29 34 33 37 34 24 20 28 38 44 42 51 57 58 48
13 15 18 19 22 25 30 35 39 44 51 65 78 80 77 77 74 69 56 35 19 15 14 16 22 27 27 26 26 27 29 32 28 22 24 41 46 49 46 49 49 45 48
18 20 23 26 28 30 34 40 43 55 72 74 67 65 58 56 53 46 39 32 24 15 15 20 23 25 24 28 28 29 30 28 24 31 32 52 56 59 56 57 55 50 45
25 29 32 33 35 37 42 47 60 73 68 63 56 53 53 52 46 39 32 27 20 14 14 15 12 13 18 24 26 27 29 28 26 38 49 56 67 68 66 63 60 51 48
35 36 38 40 42 44 55 70 75 67 61 56 51 52 53 49 43 36 30 23 13 13 12 13 14 16 17 21 27 28 28 27 33 58 63 60 82 81 74 69 63 55 49
36 41 46 48 52 62 64 72 70 63 60 56 55 57 56 50 42 32 19 14 10 8 11 15 17 17 17 22 28 29 29 30 48 68 72 71 92 91 83 71 69 56 50
42 50 53 56 59 68 68 74 69 66 59 57 60 64 60 49 38 27 14 9 8 9 12 15 16 13 16 26 29 31 39 64 58 70 84 85 100 96 86 79 74 63 48

GFSMA_500_rhum_060.txt.gz
RH
99 98 96 96 97 92 97 86 70 68 35 23 14 9 10 10 7 9 10 10 9 6 8 10 12 11 14 16 18 22 25 28 27 24 24 24 24 24 25 26 28 30 31
99 98 96 96 88 94 90 83 75 27 14 12 10 11 12 11 10 11 11 10 8 8 12 14 13 14 17 20 23 24 24 26 28 28 27 27 28 29 29 30 30 34 40
97 98 96 82 95 99 98 79 34 15 13 11 12 13 12 14 12 11 7 12 10 11 16 18 13 15 20 22 24 24 25 26 30 36 36 35 38 38 38 39 38 35 32
97 96 87 97 93 73 48 24 15 13 13 12 12 12 17 19 9 8 8 6 11 19 21 27 25 26 36 39 32 31 32 30 33 38 39 35 30 24 20 19 19 22 31
94 96 93 66 54 52 28 16 15 14 12 13 16 27 30 29 30 23 13 15 19 16 15 23 22 25 29 37 47 53 46 39 37 34 33 28 23 20 19 18 17 16 14
93 96 79 75 62 37 16 16 16 16 32 30 30 44 42 31 19 20 32 36 38 70 48 27 31 35 36 43 63 45 43 51 46 38 31 27 28 28 27 24 21 18 16
98 96 95 72 32 19 17 19 21 26 44 42 45 48 50 50 49 25 19 33 41 34 61 72 62 57 60 66 46 43 48 60 54 47 44 40 36 30 26 22 21 20 20
98 98 94 79 50 41 25 20 36 66 68 66 78 63 55 44 34 25 17 14 24 55 66 59 45 60 81 61 50 48 53 55 48 47 44 41 38 34 29 27 25 22 19
97 97 96 84 80 82 92 94 84 77 83 72 96 84 66 55 21 34 31 40 32 34 85 72 46 56 75 63 68 54 55 52 47 46 51 50 50 42 33 28 23 18 15
52 64 94 98 97 98 96 98 93 90 90 88 81 100 92 55 53 74 83 73 53 45 43 51 44 53 92 80 70 55 60 57 60 60 59 58 47 35 30 26 23 19 16
34 45 69 67 90 84 86 89 100 98 83 65 59 77 88 90 88 91 93 100 75 38 29 37 39 50 76 92 74 60 58 79 78 69 56 46 33 30 27 23 17 12 8
65 55 82 71 60 72 85 93 97 89 80 99 99 87 96 90 100 100 98 76 32 54 58 56 74 78 82 82 74 66 79 84 67 55 39 29 27 24 18 12 7 5 4
69 57 81 78 80 98 100 100 99 97 94 100 99 99 100 100 100 100 98 70 44 48 53 97 100 100 94 72 58 67 75 62 46 32 24 18 16 11 8 6 6 7 9
89 66 91 94 92 96 97 96 96 72 98 99 100 92 100 100 95 99 99 68 41 49 68 100 100 100 98 88 86 73 50 39 33 24 19 14 10 9 8 8 10 12 12
47 63 60 62 65 82 77 72 57 72 96 90 100 98 80 100 94 91 92 41 53 64 79 100 100 100 100 84 66 45 37 31 24 17 14 11 11 15 14 17 16 13 15
62 53 52 41 34 32 27 33 24 42 51 29 26 51 56 34 43 46 43 61 76 79 74 92 88 82 66 51 40 32 27 22 16 14 14 15 19 23 25 23 15 17 26
47 43 43 39 20 11 9 67 93 39 12 15 17 21 26 34 40 54 64 72 73 79 69 53 47 44 42 38 29 22 18 16 14 14 14 14 20 22 28 20 17 28 37
37 38 44 26 10 9 10 12 18 14 18 20 25 31 37 42 48 56 69 69 68 52 45 39 38 38 38 33 25 20 17 14 12 10 13 17 23 25 25 19 23 37 44
42 50 38 12 10 11 14 16 19 22 26 28 32 34 40 48 61 71 65 57 48 44 45 42 38 37 36 30 21 15 14 12 10 12 15 19 22 26 22 29 42 52 55
58 41 12 12 14 16 20 25 28 31 33 36 39 44 51 66 72 65 56 51 49 49 52 49 43 37 32 21 15 15 14 16 18 19 19 25 27 26 24 41 52 60 66
34 12 14 16 19 24 29 30 30 36 42 44 47 55 69 76 68 63 56 53 58 60 58 50 39 27 19 12 10 13 16 20 20 27 28 28 28 29 37 51 60 62 63
14 16 17 22 29 31 30 31 37 43 47 51 56 72 80 75 71 65 60 60 63 63 57 48 37 24 13 8 11 16 19 21 34 29 32 30 29 32 51 64 73 76 71
17 19 26 31 31 26 27 36 46 52 57 64 71 81 83 78 73 65 64 63 62 61 51 36 25 14 8 9 13 16 20 21 38 65 45 29 35 44 60 73 85 85 79
19 24 25 24 26 28 38 51 58 61 64 66 74 84 84 75 71 67 58 58 58 52 44 32 16 8 8 11 13 15 18 20 31 50 37 30 48 53 69 89 95 93 88
21 23 26 29 32 42 55 70 71 66 60 62 67 72 71 66 61 66 64 61 50 46 39 19 7 9 11 10 8 13 26 40 38 38 48 45 58 64 73 100 100 96 86
24 29 35 45 52 53 60 66 64 57 52 57 64 62 60 61 64 67 64 54 48 42 22 7 8 10 10 6 10 14 69 63 52 33 98 59 65 70 80 100 100 97 86

GFSMA_500_rhum_063.txt.gz
RH
87 81 95 95 96 98 95 80 82 89 78 52 43 34 11 11 10 10 7 10 9 6 6 8 8 7 7 7 7 8 10 9 11 13 14 17 20 21 23 29 29 28 26
93 91 94 95 98 94 87 97 93 77 45 23 15 12 9 9 10 7 9 8 6 6 7 10 10 10 13 15 11 12 14 11 13 17 20 26 29 30 31 35 35 33 33
86 92 99 100 98 93 98 100 91 59 20 14 12 11 11 10 8 14 13 10 8 8 10 12 17 22 20 13 13 15 16 16 20 22 26 28 31 34 37 38 37 33 29
86 92 100 96 90 93 98 95 67 24 15 13 11 13 12 12 14 14 17 12 11 18 13 18 13 10 10 13 14 19 22 21 25 32 32 34 36 37 38 34 31 28 27
92 98 99 92 91 84 55 44 24 16 16 14 14 22 29 31 28 20 16 16 14 12 11 11 11 11 15 26 40 49 30 37 41 39 39 41 43 42 40 38 35 35 34
96 97 94 74 64 69 64 40 16 16 16 16 36 41 42 48 53 47 46 46 20 8 12 26 39 43 31 33 34 42 38 48 44 52 56 49 46 42 40 39 38 35 33
98 98 95 87 94 92 46 22 17 15 16 24 48 58 70 71 75 71 62 64 53 63 56 48 34 27 28 25 20 25 35 40 52 76 66 53 46 40 37 34 35 34 30
84 96 96 99 98 63 34 25 20 24 54 76 78 73 66 67 70 75 66 58 70 78 80 63 67 69 39 20 22 28 35 47 72 83 84 74 51 45 42 42 36 32 28
64 88 92 96 98 94 70 84 89 93 90 94 97 96 69 66 52 57 63 56 50 51 77 84 92 81 52 22 27 37 54 72 79 76 70 61 59 54 50 47 36 32 25
42 52 56 88 95 93 94 97 98 90 93 84 97 94 64 76 91 80 76 81 69 66 75 85 75 81 50 34 37 43 78 94 86 73 69 64 57 48 39 33 24 20 18
37 34 46 53 66 76 64 66 88 94 83 99 99 93 88 100 100 98 89 74 66 86 86 49 50 44 44 33 43 63 74 74 73 66 58 50 39 32 24 22 21 21 20
83 94 85 75 76 84 86 86 92 89 89 92 86 78 85 100 99 81 85 88 100 100 77 60 38 40 33 38 52 59 72 63 51 41 40 34 30 28 26 25 24 21 17
85 89 97 99 99 100 88 82 92 94 80 74 63 48 98 98 77 88 98 99 87 73 46 36 38 41 55 66 65 57 46 37 32 30 30 31 32 31 28 24 17 12 7
55 50 70 97 98 95 62 46 55 67 47 37 45 72 97 94 83 75 27 18 21 26 34 41 75 81 71 65 49 41 38 35 31 29 28 31 31 25 19 13 9 8 9
85 66 78 75 65 53 40 25 17 10 8 14 59 71 84 58 18 21 24 28 30 30 37 60 72 72 59 49 45 44 40 39 36 34 33 31 25 17 11 9 10 12 13
99 89 89 41 42 37 33 16 9 8 9 11 16 68 29 20 25 28 31 34 38 43 46 62 64 56 52 52 55 52 49 45 41 37 33 26 16 9 9 14 14 16 18
74 86 56 45 40 39 32 14 10 11 13 16 20 25 28 27 30 36 40 44 50 58 57 60 63 58 55 56 56 57 54 47 41 35 27 15 8 8 10 17 16 20 21
57 54 50 56 50 43 18 10 12 15 18 24 25 22 22 26 33 43 48 52 62 73 68 65 66 63 58 57 55 52 47 41 37 26 12 9 11 11 13 19 20 26 27
28 46 59 59 41 19 10 12 15 20 26 25 20 19 25 38 49 54 54 54 57 67 74 70 67 63 56 52 50 47 45 37 20 11 9 13 18 15 19 27 25 29 28
64 58 46 33 17 11 13 16 23 24 20 20 24 28 38 45 52 53 48 49 56 67 77 76 67 57 52 51 49 46 40 27 10 9 12 16 18 19 29 35 28 28 30
55 31 30 19 12 14 16 21 20 18 19 21 30 40 47 51 51 46 42 45 55 62 62 58 56 54 50 47 45 44 29 11 9 14 18 21 36 36 54 40 34 30 45
29 31 16 13 15 16 18 19 18 20 25 38 46 46 48 52 50 40 40 47 53 57 63 61 55 52 47 43 45 33 11 8 11 15 18 54 73 58 58 55 38 42 59
31 13 14 15 16 18 18 20 23 32 46 52 53 51 52 50 44 43 47 53 64 71 71 61 56 52 47 45 29 10 8 11 13 14 12 33 87 82 91 40 49 67 68
15 15 17 15 17 18 21 24 40 53 54 54 55 56 54 51 49 49 53 61 65 68 63 62 56 50 46 25 9 8 10 12 12 9 22 42 98 73 56 52 68 70 69
16 19 17 16 18 19 25 46 54 58 54 56 59 61 61 59 59 61 65 66 65 70 68 62 54 47 31 10 9 11 12 10 9 12 60 75 90 51 46 84 78 78 87
19 17 16 18 18 28 56 64 66 56 50 52 50 61 64 64 67 70 73 75 67 66 63 56 52 39 13 8 11 13 10 10 12 16 100 95 98 49 45 87 83 88 91

GFSMA_500_rhum_069.txt.gz
RH
97 96 96 95 74 95 94 90 91 79 99 87 67 52 60 47 38 26 15 12 11 11 9 10 7 6 6 6 6 5 6 6 7 6 6 6 6 7 7 7 7 7 8
94 97 91 85 86 93 78 91 92 85 95 71 56 64 61 42 30 17 13 12 12 9 9 8 7 7 6 5 6 7 8 8 6 6 7 7 11 10 9 9 9 9 10
93 94 94 100 93 99 91 86 84 93 76 76 70 56 46 33 20 15 14 13 13 12 10 11 9 12 14 10 8 20 26 14 9 8 9 14 19 24 17 12 13 13 14
99 88 82 99 98 100 84 82 98 90 84 70 48 31 21 19 16 14 14 18 22 25 20 19 23 34 42 22 21 32 33 24 17 26 29 30 14 14 15 16 16 17 20
99 92 93 100 100 89 82 98 97 90 83 58 26 21 22 18 17 29 39 39 42 47 54 53 53 49 52 55 43 48 44 17 14 26 47 24 16 16 18 17 20 24 26
96 96 97 100 93 86 96 99 100 96 87 46 22 23 20 17 31 35 40 51 63 61 69 69 60 59 60 55 54 60 27 15 27 36 19 18 18 19 23 25 25 27 27
93 94 95 94 97 100 100 97 100 97 76 32 20 20 18 16 16 24 47 68 70 71 67 73 68 75 74 42 15 30 34 31 29 24 21 24 26 28 27 28 28 28 31
96 96 93 94 96 100 98 98 87 71 69 29 23 21 21 24 33 60 64 67 55 61 78 78 72 90 99 58 18 27 23 21 24 26 31 32 30 28 29 25 25 27 29
91 94 94 95 99 93 79 88 97 70 46 25 21 21 33 52 61 60 71 66 61 68 56 78 75 75 89 16 20 22 25 25 32 34 37 33 29 27 24 24 30 31 31
87 99 98 100 96 88 89 96 99 87 43 54 52 40 43 50 50 48 54 67 67 54 42 67 54 21 19 20 16 14 22 28 38 38 30 26 26 28 31 35 34 29 27
65 83 90 83 84 88 90 92 88 79 80 75 64 62 59 56 55 58 55 54 43 26 48 20 18 20 14 12 12 18 27 33 32 27 24 23 24 28 34 37 35 34 34
44 41 41 44 42 56 58 54 61 83 92 79 68 55 46 41 46 54 22 12 12 16 20 20 18 13 13 16 24 30 31 25 21 22 23 25 28 31 37 42 44 45 43
57 66 59 49 53 72 79 86 92 98 90 79 55 30 23 18 13 8 9 9 14 17 15 14 16 17 24 30 30 24 21 24 26 26 30 34 38 44 48 52 50 50 51
76 69 75 93 93 93 100 99 100 100 75 41 33 31 18 10 9 7 9 13 14 11 12 17 26 34 34 31 27 24 26 31 31 35 40 42 47 54 55 57 55 53 52
99 99 93 76 90 94 94 98 99 96 52 34 30 31 14 9 10 11 14 14 12 12 23 35 39 40 32 25 27 30 32 35 37 42 46 54 64 66 63 58 52 50 48
97 98 97 97 96 97 98 98 99 72 34 33 36 21 11 10 11 15 15 13 14 30 25 34 36 31 33 32 34 35 39 38 44 51 59 71 73 66 60 54 54 50 37
96 98 97 95 98 96 98 96 87 59 45 36 27 11 11 12 14 15 14 17 32 29 28 22 21 24 29 34 41 43 43 47 55 60 65 71 68 65 58 58 49 32 19
93 95 98 96 96 94 92 86 57 37 25 23 14 11 12 15 18 15 14 30 32 29 21 20 28 34 34 37 39 42 50 60 58 58 59 64 59 58 61 50 31 16 13
98 94 87 89 94 94 76 54 56 28 36 19 12 14 14 15 14 16 16 39 40 28 25 28 33 39 41 44 47 53 61 60 61 58 62 56 59 59 47 25 14 12 17
89 84 65 75 67 45 58 54 41 28 33 15 16 17 15 16 19 18 19 39 48 40 36 39 45 47 50 53 56 58 56 60 62 63 61 61 60 43 15 10 10 13 21
74 66 65 71 56 27 33 37 31 33 23 15 16 17 18 18 19 25 31 34 52 51 45 48 55 60 62 64 63 61 61 67 67 66 60 60 46 15 8 10 14 18 19
65 72 78 64 41 20 23 27 36 35 18 16 20 20 21 21 28 32 41 63 70 62 57 57 72 83 72 69 70 71 72 74 62 65 60 55 19 7 9 13 17 18 13
51 60 59 42 27 20 20 35 39 31 18 20 22 23 23 30 43 59 82 87 84 80 75 74 88 86 75 79 76 77 80 77 72 69 68 38 7 7 12 16 19 14 15
60 65 68 62 29 16 19 33 44 33 22 24 26 26 30 42 58 81 81 72 75 73 84 84 86 93 94 92 89 88 88 82 73 71 40 8 7 9 13 19 17 38 42
61 55 57 43 22 16 25 41 47 28 23 24 26 31 39 56 79 95 97 81 72 78 89 95 100 100 100 100 100 98 94 85 75 64 13 6 9 12 20 19 15 54 86
59 55 33 20 18 22 39 50 37 25 26 30 33 38 53 89 95 100 100 97 83 82 89 100 100 100 100 100 100 100 93 88 79 51 8 9 11 19 24 17 82 93 100

GFSMA_500_rhum_072.txt.gz
RH
95 95 94 77 96 97 100 100 99 97 98 96 87 93 91 76 52 60 53 47 33 17 13 12 10 9 9 6 6 5 5 5 8 11 15 7 5 5 6 7 9 10 10
93 94 96 97 97 100 100 99 98 94 97 94 87 84 75 59 62 43 31 21 16 14 12 11 9 9 8 7 7 9 10 8 8 13 19 16 7 7 8 9 11 12 12
98 95 97 97 96 96 93 100 100 95 99 96 85 75 61 76 53 28 21 18 14 13 13 13 12 12 12 10 10 14 16 26 31 30 33 12 7 10 10 12 13 12 12
96 97 98 96 99 94 99 100 100 97 92 94 78 64 76 74 47 29 20 16 16 19 26 28 27 33 38 43 47 53 58 44 27 30 16 11 10 10 10 10 11 13 17
94 94 97 97 97 99 98 99 95 96 94 94 84 78 50 30 24 20 16 14 18 27 33 44 52 55 58 60 58 58 51 48 40 33 21 15 11 9 10 12 18 22 22
96 97 97 96 97 97 98 95 90 96 97 98 71 46 30 24 22 18 18 27 28 27 44 53 59 66 69 68 64 70 75 72 63 14 12 10 9 12 18 23 23 20 18
100 98 97 98 99 100 100 95 98 95 99 97 93 64 23 25 22 18 17 17 24 48 72 75 67 72 79 83 87 82 72 59 15 11 9 11 18 25 23 17 15 13 12
100 93 95 99 98 100 99 94 96 99 96 97 83 36 23 22 19 16 17 19 40 43 62 70 63 66 66 85 75 55 24 17 10 10 14 25 26 16 13 14 15 15 15
100 100 100 99 99 98 96 98 97 94 90 68 56 33 22 20 18 23 48 57 67 70 74 73 72 58 65 83 41 18 13 14 15 22 29 18 14 15 18 19 20 22 23
89 92 99 95 96 95 98 88 88 89 81 75 52 34 23 32 50 63 64 60 61 63 61 54 36 20 20 20 14 11 14 20 31 32 21 16 17 20 23 26 29 31 33
93 88 82 98 89 92 97 93 97 96 96 96 76 63 66 65 59 54 50 56 53 51 28 10 13 18 15 11 12 17 27 33 29 20 16 19 22 25 28 32 38 40 42
81 85 82 76 77 93 96 90 98 89 91 74 83 83 79 70 61 55 35 27 30 11 10 14 18 13 12 13 23 30 32 25 16 15 20 24 27 29 33 40 45 47 45
49 46 53 62 63 69 65 63 60 58 68 93 96 93 80 74 40 27 19 13 9 10 10 16 14 13 17 28 34 29 22 16 23 25 28 30 33 36 46 53 55 55 53
52 59 56 57 56 45 43 53 72 91 97 95 100 99 84 38 34 46 22 13 9 11 16 15 16 22 29 32 27 18 16 25 29 32 35 37 41 50 55 57 59 59 59
92 84 79 78 68 65 81 92 89 97 98 100 100 94 69 84 41 30 18 11 11 15 15 17 20 38 38 27 22 20 29 32 36 40 43 45 50 54 57 60 62 64 63
69 70 81 86 91 93 84 78 92 99 98 90 98 84 70 36 34 17 12 13 15 16 14 15 29 42 32 32 27 29 36 41 46 51 54 56 58 60 62 68 72 69 68
62 64 79 100 94 99 98 92 97 100 100 99 98 85 57 35 33 12 14 17 19 16 15 17 19 39 45 36 33 38 45 53 63 67 64 64 67 69 73 82 80 75 66
74 40 50 81 76 76 86 97 98 98 96 95 96 64 36 32 15 15 18 19 20 19 17 18 21 30 52 52 47 47 56 74 84 78 75 76 81 83 86 86 84 74 52
99 93 93 99 96 95 96 99 97 96 92 94 91 74 46 36 15 16 16 18 19 17 20 23 24 40 69 69 64 64 68 88 86 86 88 90 92 92 89 89 79 63 44
96 98 97 98 100 80 88 70 62 70 74 57 65 48 31 26 16 18 20 18 19 24 28 27 41 66 65 72 74 74 79 85 81 92 97 99 97 91 93 82 71 56 39
86 61 72 84 96 80 70 74 64 38 34 47 62 39 35 24 17 19 19 22 24 29 33 50 79 80 71 69 71 72 68 68 72 90 88 92 87 85 86 74 63 49 22
56 56 55 66 70 94 87 91 59 38 27 19 25 33 37 25 20 20 25 29 30 32 50 85 100 100 96 88 82 81 81 72 70 92 81 84 86 80 76 67 56 37 6
60 75 84 81 62 80 81 92 84 69 44 26 21 32 39 31 23 28 30 30 34 54 87 92 100 100 100 100 94 91 88 80 84 89 82 68 80 74 72 65 45 10 8
45 62 77 58 66 73 70 84 88 75 21 14 20 32 41 29 27 28 30 33 40 80 89 100 100 100 100 99 90 83 85 78 81 86 94 71 81 72 70 50 15 7 9
63 36 24 50 57 65 69 99 73 28 17 20 32 46 39 25 27 31 37 48 70 89 100 100 100 100 98 97 94 90 87 81 79 87 100 82 83 76 68 21 8 10 11
20 14 15 18 29 66 83 44 20 22 26 37 48 48 35 32 33 40 54 91 100 100 100 100 100 99 97 98 98 94 93 93 91 83 99 83 83 75 46 9 10 12 13

GFSMA_500_rhum_075.txt.gz
RH
98 96 97 96 92 76 76 90 96 97 99 91 97 98 95 97 98 90 74 66 64 61 54 32 15 12 11 9 9 8 6 6 7 9 10 11 14 24 28 9 9 9 13
96 95 96 96 90 88 80 98 96 97 93 97 100 97 96 97 95 89 79 69 68 48 26 14 12 11 10 9 8 9 7 7 10 14 22 29 30 28 24 20 14 9 8
96 96 96 96 94 91 94 98 96 93 96 98 99 96 98 93 84 75 64 47 28 20 15 14 12 13 14 16 15 13 15 24 41 50 46 28 32 30 21 10 8 9 14
97 98 97 100 98 97 96 98 92 94 96 96 98 98 88 83 75 80 57 28 22 17 14 12 14 23 27 32 45 48 51 56 58 56 52 52 58 42 19 8 12 21 16
97 93 96 96 97 96 97 95 94 96 94 95 100 97 87 87 86 81 49 28 30 16 15 24 32 46 62 63 58 60 67 75 76 69 69 61 27 10 9 18 21 12 9
97 95 95 96 96 97 97 96 97 94 91 91 93 94 96 93 65 37 38 27 17 19 29 32 34 61 65 61 58 69 79 63 80 81 65 16 10 11 17 18 12 10 13
97 97 97 96 97 97 100 96 92 93 94 96 98 94 82 58 52 42 27 20 17 22 21 29 50 65 66 65 66 62 59 64 71 25 15 11 14 20 17 13 11 16 16
86 99 96 96 96 95 95 98 96 95 97 97 96 97 93 90 74 32 22 19 18 24 26 51 70 73 62 55 59 62 56 52 42 12 9 16 21 22 15 12 15 18 22
97 98 95 97 97 97 96 97 99 94 95 97 99 98 95 51 28 25 23 23 33 54 64 68 71 71 66 58 31 23 31 18 12 11 20 22 16 12 13 15 19 22 26
96 98 95 94 98 98 97 97 96 98 97 98 94 85 68 45 25 23 27 32 64 70 60 79 75 69 33 12 19 18 13 11 14 26 27 24 16 14 18 22 24 29 32
97 97 96 97 97 96 94 100 91 93 95 91 95 89 75 49 36 46 78 84 71 64 65 100 57 41 11 11 18 12 11 18 28 24 21 18 17 25 30 36 36 37 41
58 62 65 65 72 73 74 72 79 84 92 93 100 95 92 71 66 77 76 70 62 50 28 18 10 12 16 18 14 11 17 23 18 18 19 17 25 29 37 44 50 49 52
42 62 77 81 76 74 73 73 75 68 76 76 88 75 57 64 72 80 73 73 45 32 27 14 13 18 18 15 12 15 24 23 19 19 19 22 31 40 51 63 60 57 61
40 41 43 46 61 74 71 70 77 73 60 56 61 68 82 97 100 100 99 49 53 44 21 15 16 20 17 15 13 14 24 32 32 28 23 26 35 47 68 70 67 69 73
48 51 53 62 61 58 64 63 60 55 66 79 84 93 96 100 100 100 94 93 66 39 18 16 17 20 19 18 16 17 23 26 24 36 45 38 43 52 66 73 75 78 83
57 58 69 75 78 80 79 73 76 80 81 84 86 99 98 99 100 98 94 74 50 30 14 19 21 21 25 25 24 22 22 23 42 63 63 62 64 72 87 77 73 75 86
56 61 82 74 82 92 99 97 99 98 100 100 100 91 92 96 99 97 94 93 42 20 15 16 19 21 24 24 25 22 25 47 69 76 87 90 92 91 79 75 75 81 88
97 64 62 67 52 63 96 99 96 95 97 99 99 99 99 98 98 97 97 69 47 18 15 17 18 21 24 22 22 35 58 81 80 83 86 92 89 90 85 84 81 88 89
82 93 93 98 100 65 74 99 91 83 95 100 100 98 98 96 99 89 72 44 35 22 15 16 20 21 20 20 25 40 67 90 100 98 98 100 95 89 86 78 89 89 94
38 88 97 99 96 93 95 99 95 91 96 99 99 96 82 68 60 69 78 49 33 25 17 20 21 21 23 23 33 48 81 86 100 100 100 97 90 90 88 88 96 88 85
58 58 61 81 91 99 99 99 99 89 81 82 62 56 43 39 42 68 46 25 33 31 22 21 21 22 25 31 39 63 77 94 98 99 97 100 89 93 94 95 91 80 74
77 60 56 68 84 63 69 77 82 78 81 80 75 68 65 72 59 43 19 31 43 42 27 24 25 29 34 44 79 98 87 95 99 98 96 93 96 91 92 91 80 71 69
88 73 78 68 67 80 85 75 78 79 68 69 68 76 80 86 34 17 24 36 43 31 26 30 34 41 75 93 98 88 94 95 94 99 94 87 88 83 81 78 75 71 66
56 62 60 55 54 76 70 63 63 62 64 72 72 78 84 65 20 23 34 46 45 36 39 43 48 64 88 100 96 97 96 91 97 100 100 80 82 83 78 81 79 71 65
41 33 24 36 49 48 20 23 30 24 50 56 93 100 97 25 28 40 46 48 46 54 57 80 98 100 96 97 98 96 93 90 93 100 100 81 86 79 78 84 84 74 69
36 24 19 19 17 18 15 18 20 33 50 94 99 99 35 35 39 49 56 65 88 100 100 98 95 96 100 100 97 96 94 95 99 94 99 83 89 88 72 84 81 76 61

GFSMA_500_rhum_081.txt.gz
RH
96 96 95 96 97 96 95 80 91 88 84 71 77 94 94 93 87 86 83 87 87 85 71 33 41 45 42 85 30 12 13 10 10 9 9 9 10 12 25 45 50 47 41
95 96 97 95 97 97 98 86 94 89 77 72 73 99 97 84 82 84 84 89 89 89 70 57 72 76 81 50 33 31 19 11 11 11 14 27 43 55 56 56 53 54 59
96 92 96 94 96 95 98 97 92 87 78 82 83 96 98 98 94 84 84 87 91 91 90 81 79 86 78 24 44 20 16 18 27 44 55 60 60 60 65 58 63 72 45
96 98 96 96 97 95 96 98 95 93 84 97 93 96 98 96 88 78 78 80 83 89 88 82 85 40 61 64 30 16 23 41 58 66 69 68 67 67 63 56 59 39 14
97 96 97 96 97 96 94 96 95 96 96 95 98 92 96 90 89 84 81 83 90 89 84 65 56 74 52 25 19 29 58 51 68 71 68 60 58 60 58 55 42 12 9
97 96 95 96 96 96 96 96 95 97 96 97 98 97 88 92 96 95 92 87 88 87 46 71 52 80 58 34 21 40 24 55 62 61 54 55 57 49 33 17 11 9 14
96 96 96 96 96 95 96 97 98 98 97 97 93 97 92 92 95 89 86 86 88 87 95 81 75 59 25 17 24 18 32 60 63 59 61 52 32 12 10 10 8 9 15
98 98 95 95 96 94 97 98 97 97 97 97 96 95 98 97 90 86 92 94 90 89 84 80 65 39 20 17 16 25 43 56 51 53 50 30 8 9 12 10 12 15 17
96 96 96 96 95 96 96 94 95 96 92 91 96 93 97 98 95 90 92 92 84 66 74 62 47 27 19 19 21 44 57 55 55 38 24 9 10 12 12 10 13 17 22
95 96 95 95 97 92 92 97 96 96 96 95 96 97 97 99 94 95 90 87 85 82 62 34 26 24 24 28 60 61 60 55 29 38 16 10 10 11 11 10 9 10 10
96 96 90 85 95 95 96 94 91 94 95 97 97 94 98 96 96 91 98 99 93 74 64 48 33 23 31 62 86 83 68 42 47 24 37 11 13 14 12 11 12 12 12
82 90 80 86 97 96 98 98 97 96 97 98 97 95 95 96 94 91 99 93 94 95 87 66 57 76 69 64 75 72 66 53 39 54 18 13 15 15 14 14 14 15 16
90 87 84 94 88 96 99 100 98 98 100 99 97 97 98 99 86 84 88 98 97 100 82 66 82 95 82 65 73 79 77 66 66 46 15 15 15 16 16 16 16 16 18
34 36 50 52 58 66 65 68 76 78 84 91 90 99 99 100 92 99 96 96 89 74 65 66 68 96 79 61 74 92 84 62 47 27 18 15 15 16 16 16 17 20 20
18 20 26 35 39 44 55 76 73 74 75 85 98 100 100 100 92 86 80 69 64 66 78 80 75 82 92 75 97 97 72 42 30 27 18 16 16 17 18 19 22 21 23
23 22 25 26 27 30 36 46 52 63 79 99 96 90 83 79 78 75 68 72 84 76 80 99 94 93 97 93 99 71 55 48 36 28 24 19 18 18 20 22 24 24 30
67 57 45 28 25 30 35 42 56 60 63 75 79 78 90 97 96 94 97 94 92 98 94 100 92 93 99 92 42 49 61 65 30 25 30 27 24 22 22 23 26 28 68
55 62 60 62 64 66 44 38 50 56 61 69 78 80 95 95 88 87 86 92 87 100 98 98 96 96 97 49 41 54 59 38 16 15 27 33 33 28 24 26 29 52 70
53 47 53 59 74 63 63 69 57 63 61 65 64 62 76 66 60 85 82 80 88 100 99 98 96 94 73 59 94 93 82 25 16 19 25 36 32 25 25 34 46 62 81
34 36 30 30 39 50 36 38 68 65 70 84 90 83 81 66 79 84 79 76 74 90 99 98 84 91 84 92 89 58 26 22 23 29 29 37 33 35 48 71 86 80 82
36 36 31 32 32 32 50 51 41 62 61 63 91 98 83 76 89 86 83 76 72 80 79 82 82 78 84 74 79 62 33 24 25 37 42 50 75 86 89 83 83 95 100
63 67 52 43 41 30 34 64 60 54 52 54 61 74 80 96 82 76 75 74 75 73 78 68 87 83 82 90 100 100 68 49 40 57 81 90 94 92 86 87 99 100 100
68 56 55 59 50 43 37 56 89 65 66 67 60 54 67 76 75 71 74 70 85 76 48 45 64 90 100 89 100 100 92 52 86 97 93 86 95 92 100 100 100 100 100
52 47 46 56 41 49 47 66 84 58 62 59 63 65 66 61 50 46 49 60 58 49 32 40 100 95 100 100 100 96 55 86 99 96 98 91 92 98 100 100 100 100 100
45 30 38 36 35 31 39 57 68 65 58 56 42 35 41 46 37 38 35 35 41 28 39 64 100 100 100 100 97 69 94 98 97 94 99 94 99 100 100 100 100 100 100
52 42 41 36 47 50 42 24 23 40 43 42 38 29 29 26 31 39 35 26 26 35 69 100 81 98 100 100 100 93 100 99 99 98 100 100 100 100 92 98 100 100 100

GFSMA_500_rhum_084.txt.gz
RH
94 97 92 97 88 97 96 97 99 88 72 63 75 76 77 88 98 95 98 95 82 80 82 83 83 66 32 37 32 58 63 19 15 20 21 11 10 11 30 48 49 53 53
87 95 97 98 77 97 97 96 98 95 77 68 73 83 81 83 98 92 93 88 84 72 81 86 79 45 31 51 63 63 44 36 53 21 12 14 22 48 51 48 49 53 51
75 94 98 95 96 96 97 97 100 88 82 74 79 74 77 82 89 98 97 93 78 75 82 83 81 58 70 80 88 57 42 43 17 19 30 41 46 46 44 42 47 52 50
84 86 97 98 97 97 94 97 96 96 92 83 92 83 80 93 92 89 88 94 86 84 84 90 94 87 70 85 35 62 55 27 37 37 40 36 46 50 46 48 52 54 35
97 92 95 95 96 89 95 96 96 97 97 94 94 92 92 96 91 91 89 90 91 91 87 93 93 83 87 43 77 38 30 26 33 31 21 35 49 48 53 51 36 18 9
95 98 97 97 95 89 96 95 96 96 93 96 94 95 97 96 97 92 94 94 96 98 96 96 88 77 75 74 71 44 28 18 23 16 28 50 51 44 43 34 14 9 8
95 96 97 97 97 95 90 95 95 96 96 96 96 97 96 96 96 95 95 95 97 90 93 87 81 68 74 80 67 32 16 18 17 21 47 54 50 40 28 18 10 9 9
98 98 96 96 95 96 97 92 98 96 97 99 98 95 95 95 96 94 96 96 96 92 86 86 89 95 82 66 39 22 18 18 20 57 60 55 43 32 37 14 11 10 10
94 92 89 97 96 96 96 92 87 86 94 95 98 96 94 97 95 95 95 95 92 91 88 85 78 77 73 53 34 22 18 17 40 57 63 57 42 36 19 22 12 13 14
96 96 96 96 96 91 78 83 93 95 96 96 96 96 96 96 93 94 95 88 86 85 84 74 68 59 44 32 24 22 18 46 72 66 66 58 60 38 50 21 13 12 14
90 89 95 90 87 86 89 89 90 93 94 98 94 96 98 98 98 100 98 96 95 90 83 80 70 66 63 43 29 47 78 72 64 60 66 64 60 63 41 27 18 14 13
82 91 91 84 72 78 86 90 91 98 97 97 94 96 97 97 97 96 97 92 98 93 96 91 82 80 72 58 71 79 91 71 71 67 73 58 49 35 20 19 17 16 14
86 71 80 74 79 85 86 88 90 94 100 92 92 96 99 99 100 96 96 98 92 93 92 90 97 79 66 65 69 74 83 82 74 81 88 49 34 19 17 22 21 18 16
72 72 72 66 67 72 79 90 100 97 98 98 97 99 98 99 97 98 100 99 95 89 86 94 90 78 68 66 71 74 84 93 96 100 76 46 48 35 21 18 24 24 22
21 22 25 29 39 54 66 69 74 71 97 96 99 100 98 98 99 100 100 100 92 93 93 93 78 82 77 76 87 91 91 93 86 76 40 50 52 23 15 17 22 25 28
31 25 22 22 23 28 32 35 42 53 67 83 94 97 95 98 100 100 97 98 98 90 75 78 93 96 94 90 96 94 90 90 60 40 35 40 80 40 17 17 20 25 33
64 65 57 47 45 29 28 29 33 40 46 54 63 68 83 94 95 98 99 98 98 94 80 85 90 83 86 98 98 90 91 87 72 52 59 81 48 32 18 19 23 24 26
49 57 51 57 55 55 55 58 62 46 56 74 79 81 81 84 84 86 92 90 96 79 70 80 77 72 87 98 98 100 94 92 56 59 91 92 28 23 23 22 24 36 47
24 54 57 48 45 50 56 66 61 57 70 69 63 63 69 69 78 90 91 83 80 69 81 76 60 65 61 100 94 93 100 78 84 79 86 70 73 48 31 33 49 67 68
25 27 29 33 34 30 34 33 41 42 37 50 80 68 66 74 80 100 100 98 88 82 85 85 72 63 79 87 99 90 74 98 99 82 82 80 89 94 86 74 83 84 84
42 40 35 37 42 52 39 35 34 42 51 51 45 67 69 71 85 82 100 100 89 88 96 91 84 86 84 74 76 70 66 97 67 90 99 94 91 96 100 99 96 100 100
53 56 56 64 67 70 61 58 48 41 44 58 61 54 58 67 77 75 68 80 95 88 84 83 79 69 90 100 99 51 38 43 81 100 100 94 100 97 94 94 98 94 100
70 71 74 74 69 66 60 72 67 52 44 44 57 85 72 79 80 69 59 67 78 78 82 61 44 68 98 84 54 67 53 99 99 100 99 99 98 98 100 100 100 100 98
78 66 70 82 76 48 41 41 60 56 58 58 66 85 80 82 79 73 79 75 70 66 53 48 49 58 40 41 33 32 58 78 95 100 100 99 97 100 100 100 100 100 100
84 70 66 80 70 44 34 44 48 35 37 49 64 61 60 66 70 63 61 53 52 55 54 34 41 40 48 27 30 43 69 100 98 96 100 92 100 99 100 100 100 100 100
72 59 71 89 48 43 38 34 37 48 58 51 45 29 32 32 35 43 49 44 28 29 31 23 29 32 76 56 57 78 100 100 100 100 100 99 99 98 94 94 99 100 100